Location: Star Dogged Moon Observatory
(29.7756°N, 82.0783°W)
Time: 01:28:31
(UTC-04:00)

ARGOS - Visible Passes

Search period start: 29 August 2016 00:00
Search period end: 08 September 2016 00:00
Orbit: 821 x 835 km, 98.7° (Epoch: 27 August)

Date Brightness Start Highest point End Pass type
(mag) Time Alt. Az. Time Alt. Az. Time Alt. Az.
29 Aug 5.0 22:57:43 23° N 22:57:43 23° N 22:59:43 10° N visible
30 Aug 5.0 22:39:04 22° N 22:39:04 22° N 22:41:02 10° N visible
31 Aug 5.0 22:20:24 19° NNE 22:20:24 19° NNE 22:22:09 10° N visible
01 Sep 5.2 22:01:45 15° NNE 22:01:45 15° NNE 22:03:01 10° NNE visible
01 Sep 5.9 23:43:16 13° NW 23:43:16 13° NW 23:43:57 10° NNW visible
02 Sep 5.4 21:43:05 11° NE 21:43:05 11° NE 21:43:21 10° NE visible
02 Sep 5.6 23:24:37 16° NNW 23:24:37 16° NNW 23:25:43 10° NNW visible
03 Sep 5.4 23:05:57 18° NNW 23:05:57 18° NNW 23:07:17 10° NNW visible
04 Sep 5.3 22:47:18 18° N 22:47:18 18° N 22:48:40 10° N visible
05 Sep 5.3 22:28:38 17° NNE 22:28:38 17° NNE 22:29:53 10° N visible
06 Sep 5.4 22:09:59 14° NNE 22:09:59 14° NNE 22:10:52 10° NNE visible
07 Sep 5.5 21:51:20 10° NNE 21:51:20 10° NNE 21:51:29 10° NNE visible
07 Sep 6.0 23:32:51 12° NNW 23:32:51 12° NNW 23:33:10 10° NNW visible
